GLO9939 SBFZ-SBRF

Flight info

Callsign GLO9939
Flight time 1h 21m
Altitude FL330
Route UTMAR UZ70 UGTUN
Aircraft B738/M-S/N

Departure

Time 2026-05-05 01:09
Airport Pinto Martins International Airport (SBFZ)

Arrival

Time 2026-05-05 02:31
Airport Recife/Guararapes - Gilberto Freyre International Airport (SBRF)
Time Latitude Longitude Altitude Speed Heading
2026-05-05 00:59 -3.77716 -38.53967 90 ft 0 kts 258°
2026-05-05 01:05 -3.77714 -38.53961 90 ft 2 kts 258°
2026-05-05 01:05 -3.77711 -38.53944 90 ft 3 kts 258°
2026-05-05 01:05 -3.77708 -38.53935 90 ft 1 kts 258°
2026-05-05 01:05 -3.77710 -38.53922 90 ft 2 kts 302°
2026-05-05 01:06 -3.77712 -38.53920 90 ft 0 kts 308°
2026-05-05 01:06 -3.77705 -38.53928 90 ft 3 kts 308°
2026-05-05 01:06 -3.77688 -38.53950 90 ft 6 kts 308°
2026-05-05 01:06 -3.77657 -38.53989 90 ft 8 kts 308°
2026-05-05 01:07 -3.77616 -38.54041 90 ft 11 kts 308°
2026-05-05 01:07 -3.77575 -38.54103 90 ft 11 kts 292°
2026-05-05 01:07 -3.77552 -38.54184 90 ft 13 kts 285°
2026-05-05 01:07 -3.77525 -38.54282 90 ft 16 kts 285°
2026-05-05 01:08 -3.77492 -38.54370 90 ft 13 kts 311°
2026-05-05 01:08 -3.77414 -38.54393 90 ft 8 kts 23°
2026-05-05 01:08 -3.77365 -38.54364 90 ft 8 kts 46°
2026-05-05 01:08 -3.77352 -38.54315 90 ft 7 kts 104°
2026-05-05 01:09 -3.77402 -38.54129 90 ft 66 kts 105°
2026-05-05 01:09 -3.77596 -38.53406 100 ft 143 kts 106°
2026-05-05 01:09 -3.77868 -38.52381 736 ft 165 kts 106°
2026-05-05 01:09 -3.78171 -38.51219 1549 ft 184 kts 106°
2026-05-05 01:10 -3.78523 -38.49868 2088 ft 219 kts 106°
2026-05-05 01:10 -3.79152 -38.48416 2835 ft 243 kts 125°
2026-05-05 01:10 -3.80372 -38.47505 3903 ft 244 kts 156°
2026-05-05 01:10 -3.81975 -38.47243 5100 ft 247 kts 178°
2026-05-05 01:11 -3.83771 -38.47277 5777 ft 264 kts 176°
2026-05-05 01:11 -3.85528 -38.46775 5914 ft 262 kts 154°
2026-05-05 01:11 -3.87070 -38.45827 5999 ft 263 kts 147°
2026-05-05 01:11 -3.88620 -38.44861 6043 ft 259 kts 149°
2026-05-05 01:12 -3.90174 -38.43929 6721 ft 267 kts 149°
2026-05-05 01:12 -3.91740 -38.42968 7975 ft 265 kts 149°
2026-05-05 01:12 -3.93347 -38.41985 9040 ft 273 kts 150°
2026-05-05 01:12 -3.94974 -38.40989 10067 ft 279 kts 151°
2026-05-05 01:13 -3.96676 -38.39950 10854 ft 296 kts 147°
2026-05-05 01:13 -3.98499 -38.38836 11452 ft 314 kts 147°
2026-05-05 01:13 -4.00348 -38.37701 12529 ft 315 kts 149°
2026-05-05 01:13 -4.02189 -38.36574 13356 ft 323 kts 150°
2026-05-05 01:14 -4.04177 -38.35354 14233 ft 330 kts 150°
2026-05-05 01:14 -4.06041 -38.34197 14953 ft 339 kts 146°
2026-05-05 01:14 -4.08043 -38.32970 15812 ft 343 kts 146°
2026-05-05 01:14 -4.10057 -38.31715 16636 ft 348 kts 146°
2026-05-05 01:15 -4.12160 -38.30418 17434 ft 353 kts 146°
2026-05-05 01:15 -4.14254 -38.29136 18192 ft 357 kts 146°
2026-05-05 01:15 -4.14943 -38.28711 18432 ft 359 kts 146°
2026-05-05 01:15 -4.18485 -38.26515 19621 ft 367 kts 147°
2026-05-05 01:16 -4.19488 -38.25900 19917 ft 369 kts 147°
2026-05-05 01:16 -4.21600 -38.24601 20602 ft 373 kts 146°
2026-05-05 01:16 -4.23823 -38.23218 21246 ft 377 kts 147°
2026-05-05 01:16 -4.26067 -38.21839 21882 ft 381 kts 147°
2026-05-05 01:17 -4.28233 -38.20504 22464 ft 385 kts 147°
2026-05-05 01:17 -4.30601 -38.19033 23066 ft 389 kts 147°
2026-05-05 01:17 -4.32903 -38.17619 23624 ft 393 kts 147°
2026-05-05 01:17 -4.35208 -38.16197 24148 ft 396 kts 147°
2026-05-05 01:18 -4.37599 -38.14711 24673 ft 400 kts 147°
2026-05-05 01:18 -4.39966 -38.13257 25157 ft 404 kts 148°
2026-05-05 01:18 -4.42372 -38.11773 25651 ft 406 kts 147°
2026-05-05 01:18 -4.44767 -38.10283 26234 ft 407 kts 147°
2026-05-05 01:19 -4.47172 -38.08803 26809 ft 407 kts 147°
2026-05-05 01:19 -4.49584 -38.07319 27422 ft 405 kts 147°
2026-05-05 01:19 -4.51976 -38.05832 27931 ft 409 kts 147°
2026-05-05 01:19 -4.53833 -38.04680 28308 ft 410 kts 147°
2026-05-05 01:20 -4.56253 -38.03191 28931 ft 409 kts 148°
2026-05-05 01:20 -4.58617 -38.01734 29481 ft 409 kts 148°
2026-05-05 01:20 -4.61090 -38.00209 30091 ft 408 kts 148°
2026-05-05 01:20 -4.63478 -37.98721 30692 ft 407 kts 148°
2026-05-05 01:21 -4.65879 -37.97237 31291 ft 406 kts 148°
2026-05-05 01:21 -4.68279 -37.95757 31895 ft 404 kts 148°
2026-05-05 01:21 -4.70673 -37.94279 32475 ft 403 kts 148°
2026-05-05 01:21 -4.73055 -37.92809 32914 ft 406 kts 148°
2026-05-05 01:22 -4.75488 -37.91307 32998 ft 418 kts 149°
2026-05-05 01:22 -4.77983 -37.89764 33002 ft 428 kts 149°
2026-05-05 01:22 -4.83140 -37.86573 33001 ft 445 kts 149°
2026-05-05 01:23 -4.88453 -37.83289 33002 ft 459 kts 149°
2026-05-05 01:23 -4.93834 -37.79948 33001 ft 471 kts 149°
2026-05-05 01:24 -4.99466 -37.76462 33005 ft 480 kts 149°
2026-05-05 01:24 -5.05113 -37.72963 33002 ft 476 kts 149°
2026-05-05 01:25 -5.10725 -37.69485 33002 ft 477 kts 149°
2026-05-05 01:25 -5.16362 -37.65989 33003 ft 477 kts 149°
2026-05-05 01:26 -5.21848 -37.62586 33003 ft 477 kts 149°
2026-05-05 01:26 -5.27180 -37.59276 33006 ft 482 kts 149°
2026-05-05 01:27 -5.32834 -37.55764 33006 ft 481 kts 149°
2026-05-05 01:27 -5.38550 -37.52211 33007 ft 481 kts 149°
2026-05-05 01:28 -5.44210 -37.48696 33007 ft 481 kts 149°
2026-05-05 01:28 -5.49881 -37.45170 33001 ft 481 kts 149°
2026-05-05 01:29 -5.55581 -37.41626 33001 ft 482 kts 149°
2026-05-05 01:29 -5.61255 -37.38090 33001 ft 481 kts 149°
2026-05-05 01:30 -5.66929 -37.34562 33001 ft 482 kts 149°
2026-05-05 01:30 -5.72616 -37.31035 33001 ft 482 kts 149°
2026-05-05 01:31 -5.78093 -37.27168 33001 ft 486 kts 143°
2026-05-05 01:31 -5.83349 -37.22907 33001 ft 485 kts 142°
2026-05-05 01:32 -5.88544 -37.18611 33001 ft 485 kts 142°
2026-05-05 01:32 -5.93741 -37.14318 33001 ft 485 kts 142°
2026-05-05 01:33 -5.98904 -37.10049 33006 ft 487 kts 142°
2026-05-05 01:33 -6.04156 -37.05705 33006 ft 487 kts 142°
2026-05-05 01:34 -6.09377 -37.01387 33006 ft 487 kts 142°
2026-05-05 01:34 -6.14585 -36.97078 33006 ft 487 kts 142°
2026-05-05 01:35 -6.19796 -36.92764 33003 ft 486 kts 142°
2026-05-05 01:35 -6.24923 -36.88523 33004 ft 487 kts 142°
2026-05-05 01:36 -6.30096 -36.84237 33004 ft 487 kts 142°
2026-05-05 01:36 -6.35356 -36.79876 33004 ft 487 kts 142°
2026-05-05 01:37 -6.39651 -36.76311 33005 ft 487 kts 142°
2026-05-05 01:37 -6.45777 -36.71227 33010 ft 486 kts 142°
2026-05-05 01:38 -6.50497 -36.67321 33010 ft 486 kts 142°
2026-05-05 01:38 -6.55655 -36.63053 33010 ft 486 kts 142°
2026-05-05 01:39 -6.60874 -36.58730 33010 ft 486 kts 142°
2026-05-05 01:39 -6.66071 -36.54418 33018 ft 485 kts 142°
2026-05-05 01:40 -6.71262 -36.50107 33019 ft 485 kts 142°
2026-05-05 01:40 -6.76450 -36.45814 33019 ft 485 kts 142°
2026-05-05 01:41 -6.81619 -36.41518 33016 ft 467 kts 142°
2026-05-05 01:41 -6.83997 -36.39538 32871 ft 450 kts 142°
2026-05-05 01:41 -6.86175 -36.37730 32448 ft 442 kts 142°
2026-05-05 01:42 -6.88662 -36.35641 31954 ft 434 kts 142°
2026-05-05 01:42 -6.90983 -36.33695 31496 ft 427 kts 142°
2026-05-05 01:42 -6.93169 -36.31845 31092 ft 419 kts 142°
2026-05-05 01:42 -6.95460 -36.29902 30679 ft 412 kts 141°
2026-05-05 01:43 -6.97636 -36.28054 30258 ft 403 kts 141°
2026-05-05 01:43 -6.99421 -36.26540 29967 ft 392 kts 141°
2026-05-05 01:43 -7.01212 -36.25020 29632 ft 382 kts 141°
2026-05-05 01:43 -7.02809 -36.23664 29342 ft 373 kts 141°
2026-05-05 01:44 -7.04866 -36.21916 28950 ft 363 kts 141°
2026-05-05 01:44 -7.06737 -36.20327 28610 ft 352 kts 140°
2026-05-05 01:44 -7.08588 -36.18755 28243 ft 351 kts 140°
2026-05-05 01:44 -7.10476 -36.17152 27856 ft 354 kts 140°
2026-05-05 01:45 -7.12429 -36.15491 27317 ft 374 kts 139°
2026-05-05 01:45 -7.14449 -36.13775 26714 ft 384 kts 139°
2026-05-05 01:45 -7.16490 -36.12041 26089 ft 385 kts 139°
2026-05-05 01:45 -7.18542 -36.10298 25463 ft 387 kts 139°
2026-05-05 01:46 -7.20580 -36.08588 24842 ft 383 kts 138°
2026-05-05 01:46 -7.22620 -36.06854 24210 ft 379 kts 138°
2026-05-05 01:46 -7.24627 -36.05156 23584 ft 376 kts 139°
2026-05-05 01:46 -7.26323 -36.03732 23052 ft 373 kts 138°
2026-05-05 01:47 -7.27877 -36.02406 22560 ft 368 kts 140°
2026-05-05 01:47 -7.29823 -36.00762 21934 ft 364 kts 140°
2026-05-05 01:47 -7.31749 -35.99145 21308 ft 359 kts 140°
2026-05-05 01:48 -7.33630 -35.97541 20686 ft 355 kts 140°
2026-05-05 01:48 -7.35511 -35.95946 20057 ft 351 kts 140°
2026-05-05 01:48 -7.37360 -35.94393 19435 ft 347 kts 140°
2026-05-05 01:48 -7.39205 -35.92820 18804 ft 344 kts 140°
2026-05-05 01:49 -7.41022 -35.91285 18179 ft 341 kts 140°
2026-05-05 01:49 -7.42814 -35.89774 17558 ft 338 kts 140°
2026-05-05 01:49 -7.44598 -35.88251 16932 ft 335 kts 140°
2026-05-05 01:49 -7.46385 -35.86748 16304 ft 333 kts 140°
2026-05-05 01:50 -7.48149 -35.85255 15677 ft 330 kts 140°
2026-05-05 01:50 -7.49664 -35.83959 15133 ft 328 kts 140°
2026-05-05 01:50 -7.51409 -35.82496 14505 ft 328 kts 139°
2026-05-05 01:50 -7.53192 -35.81019 13877 ft 335 kts 140°
2026-05-05 01:51 -7.54986 -35.79519 13254 ft 338 kts 140°
2026-05-05 01:51 -7.56782 -35.78011 12630 ft 337 kts 141°
2026-05-05 01:51 -7.58578 -35.76497 12002 ft 334 kts 141°
2026-05-05 01:51 -7.60341 -35.75009 11379 ft 331 kts 141°
2026-05-05 01:52 -7.62083 -35.73538 10756 ft 327 kts 141°
2026-05-05 01:52 -7.63809 -35.72078 10133 ft 324 kts 141°
2026-05-05 01:52 -7.65535 -35.70617 9508 ft 320 kts 141°
2026-05-05 01:52 -7.67194 -35.69210 9163 ft 308 kts 141°
2026-05-05 01:53 -7.68790 -35.67857 9062 ft 294 kts 141°
2026-05-05 01:53 -7.70344 -35.66533 9034 ft 288 kts 140°
2026-05-05 01:53 -7.71647 -35.65104 8966 ft 275 kts 123°
2026-05-05 01:53 -7.72193 -35.63293 8835 ft 263 kts 98°
2026-05-05 01:54 -7.72226 -35.61507 8699 ft 251 kts 90°
2026-05-05 01:54 -7.72177 -35.60005 8562 ft 242 kts 89°
2026-05-05 01:54 -7.72123 -35.58720 8442 ft 236 kts 89°
2026-05-05 01:54 -7.72031 -35.56872 8270 ft 231 kts 89°
2026-05-05 01:55 -7.71935 -35.55274 8118 ft 228 kts 88°
2026-05-05 01:55 -7.71819 -35.53688 7969 ft 228 kts 88°
2026-05-05 01:55 -7.71699 -35.52130 7821 ft 227 kts 88°
2026-05-05 01:55 -7.71580 -35.50616 7676 ft 226 kts 87°
2026-05-05 01:56 -7.71455 -35.49081 7528 ft 225 kts 88°
2026-05-05 01:56 -7.71324 -35.47489 7375 ft 224 kts 87°
2026-05-05 01:56 -7.71188 -35.45951 7226 ft 223 kts 87°
2026-05-05 01:56 -7.71060 -35.44461 7082 ft 222 kts 87°
2026-05-05 01:57 -7.70923 -35.42864 6915 ft 222 kts 87°
2026-05-05 01:57 -7.70794 -35.41368 6827 ft 216 kts 87°
2026-05-05 01:57 -7.70670 -35.39934 6703 ft 218 kts 88°
2026-05-05 01:57 -7.70555 -35.38569 6556 ft 219 kts 87°
2026-05-05 01:58 -7.70449 -35.37373 6428 ft 218 kts 87°
2026-05-05 01:58 -7.70301 -35.35725 6261 ft 218 kts 88°
2026-05-05 01:58 -7.70174 -35.34184 6095 ft 217 kts 88°
2026-05-05 01:58 -7.70036 -35.32669 5920 ft 216 kts 88°
2026-05-05 01:59 -7.69908 -35.31164 5744 ft 215 kts 88°
2026-05-05 01:59 -7.69776 -35.29663 5567 ft 215 kts 88°
2026-05-05 01:59 -7.69646 -35.28170 5392 ft 214 kts 88°
2026-05-05 01:59 -7.69528 -35.26795 5229 ft 213 kts 88°
2026-05-05 02:00 -7.69415 -35.25531 5080 ft 213 kts 88°
2026-05-05 02:00 -7.69291 -35.24074 5008 ft 212 kts 88°
2026-05-05 02:00 -7.69157 -35.22583 5000 ft 213 kts 88°
2026-05-05 02:00 -7.69032 -35.21105 4998 ft 212 kts 88°
2026-05-05 02:01 -7.68901 -35.19629 5000 ft 213 kts 88°
2026-05-05 02:01 -7.68771 -35.18150 5000 ft 212 kts 88°
2026-05-05 02:01 -7.68642 -35.16669 5000 ft 213 kts 88°
2026-05-05 02:01 -7.68517 -35.15224 5000 ft 212 kts 88°
2026-05-05 02:02 -7.68385 -35.13714 5001 ft 212 kts 88°
2026-05-05 02:02 -7.68255 -35.12236 5000 ft 212 kts 88°
2026-05-05 02:02 -7.68123 -35.10756 5001 ft 212 kts 88°
2026-05-05 02:02 -7.67996 -35.09285 5001 ft 212 kts 89°
2026-05-05 02:03 -7.68156 -35.07849 4894 ft 201 kts 112°
2026-05-05 02:03 -7.69015 -35.06859 4704 ft 184 kts 146°
2026-05-05 02:03 -7.70134 -35.06340 4546 ft 171 kts 159°
2026-05-05 02:03 -7.71204 -35.05948 4424 ft 157 kts 161°
2026-05-05 02:04 -7.72197 -35.05618 4379 ft 147 kts 162°
2026-05-05 02:04 -7.73158 -35.05307 4319 ft 151 kts 162°
2026-05-05 02:04 -7.74150 -35.04985 4206 ft 149 kts 162°
2026-05-05 02:04 -7.75162 -35.04657 4089 ft 149 kts 162°
2026-05-05 02:05 -7.76138 -35.04340 3977 ft 149 kts 161°
2026-05-05 02:05 -7.77000 -35.04059 3877 ft 148 kts 161°
2026-05-05 02:05 -7.77935 -35.03753 3769 ft 148 kts 161°
2026-05-05 02:05 -7.78660 -35.03516 3685 ft 148 kts 161°
2026-05-05 02:06 -7.79686 -35.03182 3564 ft 147 kts 161°
2026-05-05 02:06 -7.80662 -35.02867 3451 ft 147 kts 161°
2026-05-05 02:06 -7.81622 -35.02557 3338 ft 147 kts 161°
2026-05-05 02:06 -7.82595 -35.02234 3224 ft 147 kts 161°
2026-05-05 02:07 -7.83502 -35.01928 3117 ft 146 kts 161°
2026-05-05 02:07 -7.84530 -35.01595 2997 ft 146 kts 161°
2026-05-05 02:07 -7.85115 -35.01406 2929 ft 146 kts 161°
2026-05-05 02:07 -7.86358 -35.00991 2782 ft 146 kts 161°
2026-05-05 02:08 -7.87322 -35.00672 2669 ft 146 kts 161°
2026-05-05 02:08 -7.88277 -35.00357 2557 ft 146 kts 161°
2026-05-05 02:08 -7.89246 -35.00037 2442 ft 146 kts 161°
2026-05-05 02:08 -7.90207 -34.99717 2329 ft 146 kts 161°
2026-05-05 02:09 -7.91152 -34.99405 2218 ft 145 kts 161°
2026-05-05 02:09 -7.92127 -34.99081 2104 ft 145 kts 161°
2026-05-05 02:09 -7.93080 -34.98768 1992 ft 146 kts 161°
2026-05-05 02:09 -7.94018 -34.98463 1873 ft 142 kts 161°
2026-05-05 02:10 -7.94940 -34.98153 1744 ft 132 kts 160°
2026-05-05 02:10 -7.95782 -34.97878 1673 ft 124 kts 161°
2026-05-05 02:10 -7.96556 -34.97624 1673 ft 114 kts 161°
2026-05-05 02:10 -7.97284 -34.97385 1708 ft 114 kts 160°
2026-05-05 02:11 -7.98068 -34.97124 1703 ft 116 kts 160°
2026-05-05 02:11 -7.98826 -34.96874 1701 ft 115 kts 160°
2026-05-05 02:11 -7.99583 -34.96621 1699 ft 115 kts 160°
2026-05-05 02:11 -8.00102 -34.96447 1700 ft 115 kts 160°
2026-05-05 02:12 -8.00837 -34.96209 1700 ft 115 kts 161°
2026-05-05 02:12 -8.02353 -34.95710 1702 ft 115 kts 161°
2026-05-05 02:12 -8.03116 -34.95461 1697 ft 115 kts 160°
2026-05-05 02:13 -8.03877 -34.95207 1688 ft 116 kts 160°
2026-05-05 02:13 -8.04646 -34.94953 1544 ft 116 kts 160°
2026-05-05 02:13 -8.05402 -34.94703 1376 ft 114 kts 160°
2026-05-05 02:13 -8.06158 -34.94463 1225 ft 115 kts 161°
2026-05-05 02:14 -8.06922 -34.94239 1072 ft 115 kts 163°
2026-05-05 02:14 -8.07688 -34.94023 921 ft 114 kts 162°
2026-05-05 02:14 -8.08448 -34.93778 768 ft 114 kts 160°
2026-05-05 02:14 -8.09182 -34.93518 620 ft 114 kts 159°
2026-05-05 02:15 -8.09934 -34.93249 467 ft 114 kts 159°
2026-05-05 02:15 -8.10676 -34.92985 317 ft 114 kts 159°
2026-05-05 02:15 -8.11420 -34.92724 170 ft 113 kts 159°
2026-05-05 02:15 -8.12158 -34.92483 94 ft 112 kts 160°
2026-05-05 02:16 -8.12883 -34.92258 333 ft 114 kts 162°
2026-05-05 02:16 -8.13738 -34.92026 781 ft 128 kts 162°
2026-05-05 02:16 -8.14587 -34.91768 1185 ft 125 kts 161°
2026-05-05 02:16 -8.15388 -34.91477 1580 ft 123 kts 155°
2026-05-05 02:17 -8.15942 -34.90932 1906 ft 127 kts 124°
2026-05-05 02:17 -8.15885 -34.90024 2304 ft 137 kts 71°
2026-05-05 02:17 -8.15108 -34.89395 2818 ft 144 kts 33°
2026-05-05 02:17 -8.14183 -34.88973 3173 ft 149 kts 29°
2026-05-05 02:18 -8.13259 -34.88499 3031 ft 150 kts 31°
2026-05-05 02:18 -8.12360 -34.88037 2985 ft 143 kts 31°
2026-05-05 02:18 -8.11454 -34.87580 3012 ft 147 kts 29°
2026-05-05 02:18 -8.10455 -34.87357 2971 ft 152 kts
2026-05-05 02:19 -8.09310 -34.87519 3081 ft 181 kts 351°
2026-05-05 02:19 -8.08073 -34.87776 3015 ft 182 kts 349°
2026-05-05 02:19 -8.06850 -34.88054 3005 ft 181 kts 348°
2026-05-05 02:19 -8.05631 -34.88396 2999 ft 181 kts 344°
2026-05-05 02:20 -8.04416 -34.88790 3000 ft 182 kts 342°
2026-05-05 02:20 -8.03241 -34.89184 2999 ft 181 kts 342°
2026-05-05 02:20 -8.02026 -34.89588 3000 ft 182 kts 342°
2026-05-05 02:20 -8.00829 -34.89986 3007 ft 182 kts 342°
2026-05-05 02:21 -7.99635 -34.90378 2999 ft 181 kts 342°
2026-05-05 02:21 -7.98646 -34.90707 3001 ft 183 kts 342°
2026-05-05 02:21 -7.97345 -34.91141 3000 ft 182 kts 342°
2026-05-05 02:21 -7.96151 -34.91537 3001 ft 182 kts 342°
2026-05-05 02:22 -7.94964 -34.91931 3001 ft 182 kts 342°
2026-05-05 02:22 -7.93765 -34.92329 2933 ft 182 kts 342°
2026-05-05 02:22 -7.92607 -34.92793 2733 ft 170 kts 334°
2026-05-05 02:22 -7.91733 -34.93472 2493 ft 151 kts 314°
2026-05-05 02:23 -7.91179 -34.94312 2321 ft 140 kts 294°
2026-05-05 02:23 -7.90955 -34.95233 2128 ft 133 kts 272°
2026-05-05 02:23 -7.91094 -34.96136 1953 ft 129 kts 248°
2026-05-05 02:23 -7.91535 -34.96890 1786 ft 125 kts 227°
2026-05-05 02:24 -7.92198 -34.97420 1664 ft 119 kts 206°
2026-05-05 02:24 -7.92974 -34.97684 1724 ft 120 kts 190°
2026-05-05 02:24 -7.93786 -34.97814 1694 ft 117 kts 184°
2026-05-05 02:24 -7.94584 -34.97856 1703 ft 116 kts 178°
2026-05-05 02:25 -7.95407 -34.97828 1700 ft 117 kts 174°
2026-05-05 02:25 -7.96205 -34.97767 1696 ft 115 kts 172°
2026-05-05 02:25 -7.96996 -34.97602 1707 ft 116 kts 164°
2026-05-05 02:25 -7.97761 -34.97371 1696 ft 115 kts 161°
2026-05-05 02:26 -7.98519 -34.97118 1706 ft 116 kts 160°
2026-05-05 02:26 -7.99276 -34.96858 1697 ft 114 kts 160°
2026-05-05 02:26 -8.00031 -34.96600 1704 ft 116 kts 160°
2026-05-05 02:26 -8.00790 -34.96342 1699 ft 115 kts 160°
2026-05-05 02:27 -8.01551 -34.96085 1701 ft 115 kts 160°
2026-05-05 02:27 -8.02304 -34.95829 1700 ft 115 kts 160°
2026-05-05 02:27 -8.03061 -34.95572 1703 ft 115 kts 160°
2026-05-05 02:27 -8.03820 -34.95316 1686 ft 116 kts 160°
2026-05-05 02:28 -8.04588 -34.95058 1552 ft 116 kts 160°
2026-05-05 02:28 -8.05343 -34.94803 1395 ft 115 kts 160°
2026-05-05 02:28 -8.06038 -34.94568 1252 ft 115 kts 160°
2026-05-05 02:28 -8.06794 -34.94313 1100 ft 114 kts 160°
2026-05-05 02:29 -8.07547 -34.94059 948 ft 114 kts 160°
2026-05-05 02:29 -8.08287 -34.93809 798 ft 113 kts 160°
2026-05-05 02:29 -8.09042 -34.93555 646 ft 113 kts 160°
2026-05-05 02:29 -8.09784 -34.93304 498 ft 113 kts 160°
2026-05-05 02:30 -8.10519 -34.93057 351 ft 113 kts 160°
2026-05-05 02:30 -8.11268 -34.92804 199 ft 112 kts 160°
2026-05-05 02:30 -8.11996 -34.92559 71 ft 110 kts 160°
2026-05-05 02:30 -8.12660 -34.92338 42 ft 85 kts 160°
2026-05-05 02:31 -8.13100 -34.92186 41 ft 55 kts 162°
2026-05-05 02:31 -8.13420 -34.92081 41 ft 43 kts 164°
2026-05-05 02:31 -8.13628 -34.92002 41 ft 27 kts 160°
2026-05-05 02:31 -8.13835 -34.91932 41 ft 37 kts 163°
2026-05-05 02:32 -8.14103 -34.91844 41 ft 43 kts 162°
2026-05-05 02:32 -8.14311 -34.91774 41 ft 16 kts 155°
2026-05-05 02:32 -8.14332 -34.91715 41 ft 6 kts 58°
2026-05-05 02:32 -8.14296 -34.91692 41 ft 8 kts 15°
2026-05-05 02:33 -8.14287 -34.91690 41 ft 0 kts 15°
2026-05-05 02:34 -8.14273 -34.91686 41 ft 5 kts 15°
2026-05-05 02:34 -8.14220 -34.91677 41 ft 7 kts
2026-05-05 02:34 -8.14164 -34.91688 41 ft 10 kts 341°
2026-05-05 02:34 -8.14104 -34.91709 41 ft 15 kts 341°
2026-05-05 02:35 -8.13982 -34.91752 41 ft 13 kts 341°
2026-05-05 02:35 -8.13902 -34.91778 41 ft 10 kts 342°
2026-05-05 02:35 -8.13834 -34.91800 41 ft 12 kts 342°
2026-05-05 02:35 -8.13752 -34.91828 41 ft 10 kts 341°
2026-05-05 02:36 -8.13682 -34.91852 41 ft 11 kts 341°
2026-05-05 02:36 -8.13622 -34.91872 41 ft 7 kts 341°
2026-05-05 02:36 -8.13582 -34.91857 41 ft 6 kts 66°
2026-05-05 02:36 -8.13567 -34.91811 41 ft 6 kts 70°
2026-05-05 02:37 -8.13563 -34.91800 41 ft 0 kts 70°